sat.trackr.live / text

‹ back to catalog

VIREON-1

NORAD 68434 · 2026-067U

PAYLOAD ACTIVE UNKNOWN

§ Identity

Operator
Country
UK
Launch date
2026-03-30
Launch site
AFWTR
Launch vehicle
Mass (kg)
RCS (m²)

External: N2YO · Heavens-Above · Gunter

§ Orbital elements

Epoch: 2026-09-20T04:30:54.667008Z

Period
94.79 min
Inclination
97.4699°
Eccentricity
0.0002501
Mean motion
15.19113503 rev/d
Perigee alt
506.8 km
Apogee alt
510.2 km
Semi-major
6,886.7 km
B*
9.7032e-5
RAAN
220.5532°
Arg perigee
51.2432°
Mean anomaly
308.9026°
Rev number
2,636

§ Raw data

VIREON-11 68434U 26067U   26263.18813272  .00001969  00000+0  97032-4 0  99962 68434  97.4699 220.5532 0002501  51.2432 308.9026 15.19113503 26369

JSON: /api/v1/satellites/68434 · /tle

For live sub-satellite position, see the globe view (requires WebGL).

§ Visibility from observer

Set your observer location to see the next 7 days of passes ≥ 10°. The values pass through the URL so the page stays shareable.

No JS? Fill the form by hand. The geolocation button needs JavaScript.